[[{"header":{"parameterUnit":"m.s-1","parameterCategory":1,"la1":30.2991,"la2":30.254,"lo1":-89.0895,"lo2":-89.0444,"dy":0.0017,"dx":0.0017,"nx":28,"ny":28,"refTime":"2025-03-29T03:00:00:Z","depth":0,"parameterNumber":2,"parameterNumberName":"U-component_of_WINDS"},"data":[0,0,0,0,0,0,0,0,0,0,0,0,0,0,0,0,0,0,0,0,0,0,0,0,0,0,0,0,0,0,0,0,0,0,0,0,0,0,0,0,0,0,0,0,0,0,0,0,0,0,0,0,0,0,0,0,0,0,-2.8025,-2.8027,0,-2.8275,-2.8277,-2.828,-2.8387,-2.8386,-2.8386,-2.8385,-2.8647,-2.8654,-2.8661,0,0,0,0,0,0,0,0,0,0,0,0,0,-2.7644,-2.7651,-2.8025,-2.8028,-2.8031,-2.8274,-2.8277,-2.8281,-2.8387,-2.8386,-2.8386,-2.8385,-2.8644,-2.8653,-2.8662,0,0,0,0,0,0,0,0,0,0,0,0,0,-2.7843,-2.7653,-2.8024,-2.8113,-2.8123,-2.8273,-2.8278,-2.8282,-2.8387,-2.8386,-2.8385,-2.8385,-2.8641,-2.8652,-2.8663,-2.8745,0,0,-2.8697,-2.8702,0,0,0,0,0,0,0,0,-2.7832,-2.7857,-2.8097,-2.8107,-2.8119,-2.8299,-2.8239,-2.8437,-2.8387,-2.8287,-2.8385,-2.8385,-2.8532,-2.8552,-2.86,-2.8758,-2.8769,-2.8698,-2.8705,-2.8709,-2.8713,0,0,0,0,0,0,0,-2.7818,-2.7847,-2.8124,-2.81,-2.8114,-2.8142,-2.8169,-2.8277,-2.841,-2.8296,-2.8304,-2.8332,-2.8538,-2.8589,-2.8607,-2.8773,-2.8698,-2.8708,-2.8714,-2.8719,-2.9009,-2.901,0,0,0,0,0,0,-2.7789,-2.7835,-2.8116,-2.8131,-2.7971,-2.8149,-2.818,-2.8242,-2.8409,-2.8434,-2.8332,-2.8336,-2.8571,-2.8594,-2.8617,-2.8724,-2.8709,-2.872,-2.8726,-2.9008,-2.901,-2.9011,0,0,0,0,0,0,-2.778,-2.7813,-2.8106,-2.7985,-2.8025,-2.8156,-2.8225,-2.8247,-2.8299,-2.8437,-2.8462,-2.836,-2.8571,-2.8601,-2.8712,-2.8734,-2.8725,-2.8735,-2.9007,-2.9009,-2.901,-2.8938,0,0,0,0,0,0,-2.7769,-2.7809,-2.7841,-2.7985,-2.8031,-2.8195,-2.8226,-2.8252,-2.8317,-2.8324,-2.847,-2.8493,-2.8573,-2.8695,-2.8723,-2.875,-2.8743,-2.9006,-2.9008,-2.901,-2.8939,-2.8937,-2.8935,0,0,0,0,0,-2.7755,-2.7812,-2.7842,-2.7875,-2.8073,-2.8196,-2.8222,-2.8311,-2.8318,-2.8352,-2.844,-2.8489,-2.8727,-2.8705,-2.8738,-2.8768,-2.9005,-2.9007,-2.901,-2.894,-2.8937,-2.8935,0,0,0,0,0,0,-2.7669,-2.7832,-2.7867,-2.7972,-2.8069,-2.8214,-2.8259,-2.8306,-2.8404,-2.8407,-2.8515,-2.8547,-2.8649,-2.872,-2.8693,-2.8856,-2.887,-2.8879,-2.8806,-2.8805,-2.8803,-2.8784,-2.8753,0,0,0,0,0,-2.7662,-2.7746,-2.7886,-2.7965,-2.8011,-2.8126,-2.8183,-2.8243,-2.8349,-2.8391,-2.8488,-2.859,-2.8688,-2.875,-2.8848,-2.895,-2.8983,-2.8986,-2.8984,-2.8982,-2.8989,-2.9048,-2.9051,-2.9019,-2.9019,-2.9019,0,0,-2.7649,-2.7748,-2.7796,-2.795,-2.8032,-2.8119,-2.816,-2.8251,-2.8316,-2.8405,-2.8515,-2.8589,-2.8711,-2.8816,-2.8868,-2.8879,-2.9005,-2.8985,-2.8982,-2.8991,-2.905,-2.9053,-2.9056,-2.902,-2.902,-2.902,0,0,-2.7669,-2.7752,-2.7827,-2.7908,-2.8031,-2.8106,-2.8124,-2.8262,-2.8314,-2.8425,-2.8493,-2.8574,-2.8741,-2.8824,-2.8888,-2.8938,-2.8986,-2.8967,-2.8957,-2.9013,-2.9015,-2.9018,-2.9036,-2.9041,-2.8973,-2.8973,-2.8973,0,-2.7638,-2.7769,-2.786,-2.7946,-2.8012,-2.8094,-2.8171,-2.8246,-2.8395,-2.844,-2.8449,-2.8659,-2.8746,-2.8873,-2.8884,-2.8934,-2.8958,-2.8951,-2.9007,-2.9011,-2.9015,-2.9033,-2.9039,-2.897,-2.897,-2.897,-2.8971,0,-2.7724,-2.7814,-2.786,-2.7999,-2.8071,-2.8152,-2.8257,-2.8318,-2.8371,-2.8446,-2.8559,-2.8666,-2.8787,-2.8821,-2.8876,-2.8956,-2.8958,-2.8986,-2.9002,-2.9013,-2.9032,-2.904,-2.8965,-2.8966,-2.8967,-2.8968,0,0,-2.7698,-2.7885,-2.79,-2.7964,-2.8105,-2.8177,-2.8262,-2.8378,-2.8429,-2.8529,-2.8604,-2.8742,-2.8768,-2.884,-2.8905,-2.8953,-2.8986,-2.8976,-2.898,-2.8974,-2.908,-2.9058,-2.9065,-2.9018,-2.902,-2.9021,-2.907,0,-2.7737,-2.7891,-2.7975,-2.8094,-2.8178,-2.8257,-2.8331,-2.8426,-2.8498,-2.8582,-2.8663,-2.8759,-2.8786,-2.883,-2.8882,-2.897,-2.9009,-2.8968,-2.909,-2.9093,-2.9057,-2.9075,-2.9053,-2.9094,-2.9078,-2.908,-2.9081,0,-2.7804,-2.7899,-2.8025,-2.8155,-2.8194,-2.8259,-2.8372,-2.845,-2.856,-2.8609,-2.8689,-2.8752,-2.8846,-2.8854,-2.8986,-2.8956,-2.9011,-2.9062,-2.9066,-2.9081,-2.9087,-2.9091,-2.9109,-2.9115,-2.9093,-2.9092,-2.9091,0,-2.7771,-2.7932,-2.8028,-2.8081,-2.8235,-2.8278,-2.8345,-2.8454,-2.8518,-2.8617,-2.866,-2.8769,-2.8829,-2.8913,-2.9004,-2.9002,-2.9126,-2.9142,-2.9171,-2.9168,-2.9194,-2.9191,-2.9221,-2.9229,-2.9229,-2.9228,-2.9228,0,-2.7806,-2.788,-2.8015,-2.8075,-2.816,-2.8257,-2.834,-2.8413,-2.8509,-2.8585,-2.8661,-2.8731,-2.8847,-2.8932,-2.9004,-2.9102,-2.9129,-2.9172,-2.919,-2.9165,-2.916,-2.9203,-2.9203,-2.923,-2.923,-2.923,-2.9229,0,-2.7784,-2.7878,-2.7988,-2.8124,-2.816,-2.8217,-2.8335,-2.8396,-2.8471,-2.8566,-2.8594,-2.8714,-2.8817,-2.8916,-2.9056,-2.9105,-2.9202,-2.9227,-2.9164,-2.9175,-2.9197,-2.9194,-2.9257,-2.927,-2.9267,-2.9267,-2.9267,0,-2.78,-2.7858,-2.8,-2.8055,-2.8119,-2.8207,-2.8272,-2.837,-2.8435,-2.8563,-2.8609,-2.8718,-2.881,-2.8972,-2.9073,-2.918,-2.9207,-2.9222,-2.9224,-2.9197,-2.9208,-2.9203,-2.9209,-2.9219,-2.9219,-2.9219,-2.9218,0,-2.7818,-2.7861,-2.795,-2.8056,-2.813,-2.8219,-2.831,-2.8351,-2.8467,-2.8536,-2.8641,-2.8713,-2.8854,-2.8961,-2.9079,-2.9151,-2.9204,-2.9216,-2.9229,-2.9204,-2.9166,-2.9187,-2.9158,-2.9215,-2.9215,-2.9216,-2.9216,-2.9216,-2.7816,-2.7872,-2.7979,-2.8076,-2.8154,-2.8237,-2.8301,-2.8383,-2.8473,-2.8593,-2.8646,-2.8753,-2.8862,-2.9026,-2.9096,-2.9182,-2.9194,-2.9212,-2.9217,-2.922,-2.9214,-2.9151,-2.9204,-2.9204,-2.9204,-2.9204,-2.9205,0,-2.7838,-2.7911,-2.7999,-2.8122,-2.8199,-2.824,-2.8343,-2.8405,-2.8497,-2.8593,-2.8681,-2.8802,-2.8907,-2.9014,-2.9125,-2.9173,-2.92,-2.9199,-2.9197,-2.9212,-2.9197,-2.9175,-2.9175,-2.9175,-2.9175,-2.9175,-2.9175,-2.9175,-2.7858,-2.7954,-2.8009,-2.8145,-2.8218,-2.8321,-2.8376,-2.8454,-2.8531,-2.8662,-2.8748,-2.8816,-2.8918,-2.9036,-2.9134,-2.9163,-2.92,-2.9192,-2.9228,-2.9211,-2.9213,-2.9215,-2.9195,-2.9199,-2.9199,-2.9236,-2.9236,-2.9237]},{"header":{"parameterUnit":"m.s-1","parameterCategory":1,"la1":30.2991,"la2":30.254,"lo1":-89.0895,"lo2":-89.0444,"dy":0.0017,"dx":0.0017,"nx":28,"ny":28,"refTime":"2025-03-29T03:00:00:Z","depth":0,"parameterNumber":3,"parameterNumberName":"V-component_of_WINDS"},"data":[0,0,0,0,0,0,0,0,0,0,0,0,0,0,0,0,0,0,0,0,0,0,0,0,0,0,0,0,0,0,0,0,0,0,0,0,0,0,0,0,0,0,0,0,0,0,0,0,0,0,0,0,0,0,0,0,0,0,4.9847,4.985,0,5.0132,5.0135,5.0138,5.0196,5.0194,5.0192,5.019,5.048,5.0489,5.0499,0,0,0,0,0,0,0,0,0,0,0,0,0,4.9356,4.9364,4.9847,4.9851,4.9854,5.0131,5.0135,5.0139,5.0197,5.0194,5.0191,5.0189,5.0477,5.0488,5.05,0,0,0,0,0,0,0,0,0,0,0,0,0,4.9597,4.9367,4.9847,4.9916,4.9926,5.013,5.0135,5.014,5.0197,5.0194,5.0191,5.0188,5.0473,5.0487,5.0501,5.0656,0,0,5.0546,5.0552,0,0,0,0,0,0,0,0,4.9584,4.9615,4.9903,4.9912,4.9923,5.0125,5.0068,5.0313,5.0198,5.0094,5.019,5.0186,5.0364,5.0388,5.0448,5.067,5.0682,5.0547,5.0556,5.0562,5.0567,0,0,0,0,0,0,0,4.9567,4.9603,4.996,4.9907,4.9919,4.9934,4.9965,5.0115,5.0244,5.0103,5.0108,5.0141,5.0369,5.0434,5.0455,5.0687,5.0547,5.056,5.0569,5.0575,5.1054,5.1057,0,0,0,0,0,0,4.9538,4.9589,4.9951,4.9968,4.9742,4.9946,4.998,5.0063,5.0242,5.0267,5.0143,5.0142,5.0411,5.0438,5.0466,5.0662,5.0562,5.0576,5.0584,5.105,5.1054,5.1059,0,0,0,0,0,0,4.9527,4.9569,4.9939,4.978,4.9829,4.9958,5.0051,5.0071,5.0136,5.0273,5.0296,5.0186,5.0409,5.0445,5.061,5.0673,5.0583,5.0596,5.1045,5.1051,5.1057,5.1053,0,0,0,0,0,0,4.9512,4.9565,4.9625,4.9781,4.9837,5.0078,5.0055,5.0079,5.0161,5.0162,5.0319,5.0342,5.0409,5.0587,5.0624,5.0691,5.0607,5.104,5.1048,5.1055,5.1048,5.1058,5.1067,0,0,0,0,0,4.9495,4.9611,4.9627,4.9671,4.9914,5.0081,5.0113,5.0189,5.0165,5.0227,5.0316,5.0337,5.0659,5.0604,5.0645,5.0718,5.1036,5.1045,5.1054,5.1044,5.1056,5.1066,0,0,0,0,0,0,4.9458,4.9633,4.9653,4.9823,4.9937,5.0091,5.0171,5.0199,5.0321,5.0318,5.0406,5.0441,5.0601,5.0676,5.0611,5.0879,5.0847,5.0864,5.0825,5.0837,5.0846,5.0826,5.0619,0,0,0,0,0,4.947,4.9591,4.9737,4.9874,4.993,5.004,5.0116,5.0165,5.0286,5.0335,5.0435,5.0552,5.068,5.0762,5.0888,5.1059,5.1095,5.1129,5.1138,5.1145,5.116,5.1259,5.1277,5.1088,5.1088,5.1088,0,0,4.9495,4.9606,4.9677,4.9869,4.9963,5.0088,5.0081,5.0211,5.0305,5.0354,5.0517,5.0594,5.0731,5.09,5.0979,5.0967,5.122,5.1157,5.1161,5.1173,5.127,5.1288,5.1304,5.1094,5.1093,5.1092,0,0,4.9606,4.9701,4.9827,4.9922,5.0065,5.0138,5.0168,5.0318,5.0373,5.0537,5.0577,5.069,5.0907,5.1004,5.1082,5.1232,5.1257,5.127,5.1319,5.1415,5.143,5.1443,5.15,5.1518,5.1284,5.1284,5.1284,0,4.962,4.9809,4.9888,5.0019,5.0103,5.0154,5.0284,5.0372,5.0547,5.0605,5.0589,5.0866,5.0961,5.1155,5.1192,5.1252,5.1291,5.1253,5.1421,5.1436,5.145,5.1504,5.1525,5.1285,5.1285,5.1285,5.1285,0,4.9821,4.9951,5.0036,5.0206,5.03,5.0429,5.0528,5.0614,5.0655,5.073,5.0898,5.1015,5.1166,5.1215,5.1255,5.1416,5.1404,5.1403,5.1373,5.1467,5.152,5.1542,5.1286,5.1286,5.1285,5.1285,0,0,4.9916,5.013,5.016,5.024,5.0402,5.0505,5.0637,5.0786,5.0859,5.0979,5.1093,5.1278,5.1279,5.1367,5.1419,5.1502,5.1618,5.1492,5.1497,5.1514,5.1805,5.1807,5.1829,5.1634,5.1639,5.1642,5.1795,0,5.0049,5.0287,5.0363,5.0562,5.0685,5.0737,5.0852,5.0965,5.1039,5.1154,5.1236,5.1367,5.1357,5.1411,5.1496,5.1586,5.1678,5.1575,5.1743,5.1748,5.171,5.1857,5.1858,5.1997,5.1816,5.1819,5.1822,0,5.0235,5.036,5.0572,5.0722,5.0776,5.0879,5.1023,5.1132,5.1262,5.131,5.1409,5.1456,5.1597,5.1557,5.1754,5.1683,5.1756,5.1811,5.1818,5.1838,5.1792,5.1883,5.2042,5.2064,5.1855,5.1852,5.185,0,5.0287,5.0508,5.0665,5.073,5.0908,5.0979,5.1057,5.1183,5.1269,5.1394,5.1451,5.1591,5.1668,5.1776,5.1859,5.1822,5.205,5.2016,5.2095,5.2093,5.2142,5.2139,5.2318,5.2185,5.2185,5.2184,5.2184,0,5.0429,5.0557,5.0691,5.0787,5.0933,5.1019,5.1161,5.1241,5.1354,5.1467,5.1519,5.1624,5.1727,5.1846,5.1912,5.2067,5.21,5.2144,5.2161,5.2141,5.2136,5.2192,5.2185,5.219,5.2189,5.2188,5.2187,0,5.0512,5.0607,5.0781,5.0936,5.0978,5.1078,5.1211,5.1307,5.1384,5.1527,5.1566,5.1686,5.1829,5.1923,5.2105,5.2149,5.2319,5.2331,5.2276,5.2284,5.2359,5.2352,5.2582,5.2618,5.2459,5.246,5.2461,0,5.0598,5.0698,5.0864,5.0944,5.1022,5.115,5.1239,5.1328,5.1418,5.1574,5.1652,5.1799,5.1922,5.2148,5.2252,5.2393,5.241,5.2482,5.2432,5.241,5.2415,5.2409,5.2421,5.249,5.2491,5.2492,5.2493,0,5.074,5.0783,5.0908,5.1051,5.1155,5.1272,5.1388,5.1451,5.156,5.1659,5.1807,5.1902,5.209,5.2236,5.2386,5.2466,5.2499,5.2508,5.2534,5.2517,5.2482,5.2505,5.2301,5.2503,5.2502,5.2501,5.25,5.25,5.083,5.0922,5.1055,5.1194,5.1291,5.1399,5.1498,5.1588,5.1713,5.1873,5.1918,5.2073,5.2202,5.2408,5.2491,5.2614,5.2606,5.2643,5.2653,5.2661,5.2664,5.246,5.2641,5.2641,5.2641,5.2641,5.2641,0,5.0978,5.1065,5.1192,5.1355,5.1465,5.1486,5.1617,5.1707,5.1844,5.1961,5.2082,5.2253,5.2396,5.2511,5.2658,5.2735,5.2754,5.2771,5.2767,5.2786,5.2661,5.2625,5.2753,5.2753,5.2753,5.2753,5.2753,5.2753,5.1068,5.1227,5.1285,5.1494,5.1581,5.1734,5.1808,5.1909,5.2004,5.2193,5.2312,5.2387,5.2505,5.2661,5.2794,5.2824,5.2877,5.2891,5.2925,5.2807,5.2794,5.2782,5.2749,5.2901,5.2901,5.304,5.3041,5.3042]}]]